Time,TemperatureF,DewpointF,PressureIn,WindDirection,WindDirectionDegrees,WindSpeedMPH,WindSpeedGustMPH,Humidity,HourlyPrecipIn,Conditions,Clouds,dailyrainin,SoftwareType,DateUTC
2013-09-27 00:00:00,62.4,48.8,30.12,ESE,112,0.0,0.0,61,0.00,,BKN250,0.00,VWS V14.01,2013-09-27 04:00:00,
2013-09-27 00:01:00,62.4,48.8,30.12,ESE,112,0.0,0.0,61,0.00,,CLR,0.00,VWS V14.01,2013-09-27 04:01:00,
2013-09-27 00:06:00,62.2,49.1,30.12,ESE,112,0.0,0.0,62,0.00,,CLR,0.00,VWS V14.01,2013-09-27 04:06:00,
2013-09-27 00:11:00,62.2,49.5,30.12,ESE,112,0.0,0.0,63,0.00,,CLR,0.00,VWS V14.01,2013-09-27 04:11:00,
2013-09-27 00:16:00,62.1,49.3,30.12,ESE,112,0.0,0.0,63,0.00,,CLR,0.00,VWS V14.01,2013-09-27 04:16:00,
2013-09-27 00:21:00,62.1,49.8,30.12,ESE,112,0.0,0.0,64,0.00,,CLR,0.00,VWS V14.01,2013-09-27 04:21:00,
2013-09-27 00:26:00,61.9,49.6,30.12,ESE,112,0.0,0.0,64,0.00,,CLR,0.00,VWS V14.01,2013-09-27 04:26:00,
2013-09-27 00:31:00,61.9,49.6,30.12,ESE,112,0.0,0.0,64,0.00,,CLR,0.00,VWS V14.01,2013-09-27 04:31:00,
2013-09-27 00:36:00,61.7,49.4,30.12,ESE,112,0.0,0.0,64,0.00,,CLR,0.00,VWS V14.01,2013-09-27 04:36:00,
2013-09-27 00:41:00,61.7,49.8,30.12,ESE,112,0.0,0.0,65,0.00,,CLR,0.00,VWS V14.01,2013-09-27 04:41:00,
2013-09-27 00:46:00,61.7,49.4,30.12,ESE,112,0.0,0.0,64,0.00,,CLR,0.00,VWS V14.01,2013-09-27 04:46:00,
2013-09-27 00:51:00,61.7,49.8,30.12,ESE,112,0.0,0.0,65,0.00,,CLR,0.00,VWS V14.01,2013-09-27 04:51:00,
2013-09-27 00:56:00,61.5,49.7,30.12,ESE,112,0.0,0.0,65,0.00,,CLR,0.00,VWS V14.01,2013-09-27 04:56:00,
2013-09-27 01:00:00,34.2,0.0,30.12,ESE,112,0.0,0.0,0,0.00,,BKN250,0.00,VWS V14.01,2013-09-27 05:00:00,
2013-09-27 01:01:00,34.2,0.0,30.12,ESE,112,0.0,0.0,0,0.00,,CLR,0.00,VWS V14.01,2013-09-27 05:01:00,
2013-09-27 01:06:00,61.3,49.9,30.12,ESE,112,0.0,0.0,66,0.00,,CLR,0.00,VWS V14.01,2013-09-27 05:06:00,
2013-09-27 01:11:00,61.3,50.3,30.12,ESE,112,0.0,0.0,67,0.00,,CLR,0.00,VWS V14.01,2013-09-27 05:11:00,
2013-09-27 01:16:00,61.3,50.7,30.12,ESE,112,0.0,0.0,68,0.00,,CLR,0.00,VWS V14.01,2013-09-27 05:16:00,
2013-09-27 01:21:00,61.2,50.5,30.12,ESE,112,0.0,0.0,68,0.00,,CLR,0.00,VWS V14.01,2013-09-27 05:21:00,
2013-09-27 01:26:00,61.2,50.1,30.12,ESE,112,0.0,0.0,67,0.00,,CLR,0.00,VWS V14.01,2013-09-27 05:26:00,
2013-09-27 01:31:00,61.0,50.0,30.12,ESE,112,0.0,0.0,67,0.00,,CLR,0.00,VWS V14.01,2013-09-27 05:31:00,
2013-09-27 01:36:00,61.0,50.8,30.12,ESE,112,0.0,0.0,69,0.00,,CLR,0.00,VWS V14.01,2013-09-27 05:36:00,
2013-09-27 01:41:00,61.0,51.1,30.12,ESE,112,0.0,0.0,70,0.00,,CLR,0.00,VWS V14.01,2013-09-27 05:41:00,
2013-09-27 01:46:00,60.8,50.6,30.12,ESE,112,0.0,0.0,69,0.00,,CLR,0.00,VWS V14.01,2013-09-27 05:46:00,
2013-09-27 01:51:00,60.8,51.0,30.12,ESE,112,0.0,0.0,70,0.00,,CLR,0.00,VWS V14.01,2013-09-27 05:51:00,
2013-09-27 01:56:00,60.6,50.8,30.12,ESE,112,0.0,0.0,70,0.00,,CLR,0.00,VWS V14.01,2013-09-27 05:56:00,
2013-09-27 02:00:00,60.6,51.2,30.12,ESE,112,0.0,0.0,71,0.00,,BKN250,0.00,VWS V14.01,2013-09-27 06:00:00,
2013-09-27 02:01:00,60.6,51.2,30.12,ESE,112,0.0,0.0,71,0.00,,CLR,0.00,VWS V14.01,2013-09-27 06:01:00,
2013-09-27 02:06:00,60.4,51.0,30.15,ESE,112,0.0,0.0,71,0.00,,CLR,0.00,VWS V14.01,2013-09-27 06:06:00,
2013-09-27 02:11:00,60.4,51.4,30.15,ESE,112,0.0,0.0,72,0.00,,CLR,0.00,VWS V14.01,2013-09-27 06:11:00,
2013-09-27 02:16:00,60.4,51.4,30.15,ESE,112,0.0,0.0,72,0.00,,CLR,0.00,VWS V14.01,2013-09-27 06:16:00,
2013-09-27 02:21:00,60.3,51.6,30.15,ESE,112,0.0,0.0,73,0.00,,CLR,0.00,VWS V14.01,2013-09-27 06:21:00,
2013-09-27 02:26:00,60.3,51.6,30.15,ESE,112,0.0,0.0,73,0.00,,CLR,0.00,VWS V14.01,2013-09-27 06:26:00,
2013-09-27 02:31:00,60.1,51.4,30.15,ESE,112,0.0,0.0,73,0.00,,CLR,0.00,VWS V14.01,2013-09-27 06:31:00,
2013-09-27 02:36:00,60.1,51.4,30.15,ESE,112,0.0,0.0,73,0.00,,CLR,0.00,VWS V14.01,2013-09-27 06:36:00,
2013-09-27 02:41:00,59.9,51.2,30.15,ESE,112,0.0,0.0,73,0.00,,CLR,0.00,VWS V14.01,2013-09-27 06:41:00,
2013-09-27 02:46:00,59.9,51.2,30.15,ESE,112,0.0,0.0,73,0.00,,CLR,0.00,VWS V14.01,2013-09-27 06:46:00,
2013-09-27 02:51:00,59.7,50.7,30.15,ESE,112,0.0,0.0,72,0.00,,CLR,0.00,VWS V14.01,2013-09-27 06:51:00,
2013-09-27 02:56:00,59.7,51.1,30.15,ESE,112,0.0,0.0,73,0.00,,CLR,0.00,VWS V14.01,2013-09-27 06:56:00,
2013-09-27 03:00:00,59.7,51.4,30.15,ESE,112,0.0,0.0,74,0.00,,BKN250,0.00,VWS V14.01,2013-09-27 07:00:00,
2013-09-27 04:00:00,59.7,51.4,30.15,ESE,112,0.0,0.0,74,0.00,,,0.00,VWS V14.01,2013-09-27 08:00:00,
2013-09-27 05:28:00,58.3,53.2,30.15,SSE,158,0.0,0.0,83,0.00,,CLR,0.00,VWS V14.01,2013-09-27 09:28:00,
2013-09-27 05:33:00,58.1,52.6,30.15,SSE,158,0.0,0.0,82,0.00,,CLR,0.00,VWS V14.01,2013-09-27 09:33:00,
2013-09-27 05:38:00,58.1,52.6,30.15,SSE,158,0.0,0.0,82,0.00,,CLR,0.00,VWS V14.01,2013-09-27 09:38:00,
2013-09-27 05:43:00,58.1,52.6,30.15,SSE,158,0.0,0.0,82,0.00,,CLR,0.00,VWS V14.01,2013-09-27 09:43:00,
2013-09-27 05:48:00,58.1,53.0,30.15,SSE,158,0.0,0.0,83,0.00,,CLR,0.00,VWS V14.01,2013-09-27 09:48:00,
2013-09-27 05:53:00,58.1,52.6,30.15,SSE,158,0.0,0.0,82,0.00,,CLR,0.00,VWS V14.01,2013-09-27 09:53:00,
2013-09-27 05:58:00,58.1,53.0,30.15,SSE,158,0.0,0.0,83,0.00,,CLR,0.00,VWS V14.01,2013-09-27 09:58:00,
2013-09-27 06:03:00,58.1,53.0,30.15,SSE,158,0.0,0.0,83,0.00,,CLR,0.00,VWS V14.01,2013-09-27 10:03:00,
2013-09-27 06:08:00,57.9,52.5,30.15,SSE,158,0.0,0.0,82,0.00,,CLR,0.00,VWS V14.01,2013-09-27 10:08:00,
2013-09-27 06:12:00,57.9,52.5,30.15,SSE,158,0.0,0.0,82,0.00,,CLR,0.00,VWS V14.01,2013-09-27 10:12:00,
2013-09-27 06:17:00,57.9,52.8,30.15,SSE,158,0.0,0.0,83,0.00,,CLR,0.00,VWS V14.01,2013-09-27 10:17:00,
2013-09-27 06:22:00,57.9,53.1,30.18,SSE,158,0.0,0.0,84,0.00,,CLR,0.00,VWS V14.01,2013-09-27 10:22:00,
2013-09-27 06:27:00,57.9,52.8,30.18,SSE,158,0.0,0.0,83,0.00,,CLR,0.00,VWS V14.01,2013-09-27 10:27:00,
2013-09-27 06:32:00,57.9,53.1,30.18,SSE,158,0.0,0.0,84,0.00,,CLR,0.00,VWS V14.01,2013-09-27 10:32:00,
2013-09-27 06:37:00,57.7,52.6,30.18,SSE,158,0.0,0.0,83,0.00,,CLR,0.00,VWS V14.01,2013-09-27 10:37:00,
2013-09-27 06:42:00,57.7,53.0,30.18,SSE,158,0.0,0.0,84,0.00,,CLR,0.00,VWS V14.01,2013-09-27 10:42:00,
2013-09-27 06:47:00,57.7,52.6,30.18,SSE,158,0.0,0.0,83,0.00,,CLR,0.00,VWS V14.01,2013-09-27 10:47:00,
2013-09-27 06:52:00,57.7,52.6,30.18,SSE,158,0.0,0.0,83,0.00,,CLR,0.00,VWS V14.01,2013-09-27 10:52:00,
2013-09-27 06:57:00,57.7,53.3,30.18,SSE,158,0.0,0.0,85,0.00,,CLR,0.00,VWS V14.01,2013-09-27 10:57:00,
2013-09-27 07:00:00,57.6,52.8,30.18,SSE,158,0.0,0.0,84,0.00,,BKN250,0.00,VWS V14.01,2013-09-27 11:00:00,
2013-09-27 07:02:00,57.6,52.8,30.18,SSE,158,0.0,0.0,84,0.00,,CLR,0.00,VWS V14.01,2013-09-27 11:02:00,
2013-09-27 07:07:00,57.6,53.1,30.21,SSE,158,0.0,0.0,85,0.00,,CLR,0.00,VWS V14.01,2013-09-27 11:07:00,
2013-09-27 07:12:00,57.6,53.1,30.21,SSE,158,0.0,0.0,85,0.00,,CLR,0.00,VWS V14.01,2013-09-27 11:12:00,
2013-09-27 07:17:00,57.6,53.1,30.21,SSE,158,0.0,0.0,85,0.00,,CLR,0.00,VWS V14.01,2013-09-27 11:17:00,
2013-09-27 07:22:00,57.6,53.4,30.21,SSE,158,0.0,0.0,86,0.00,,CLR,0.00,VWS V14.01,2013-09-27 11:22:00,
2013-09-27 07:27:00,57.6,53.4,30.21,SSE,158,0.0,0.0,86,0.00,,CLR,0.00,VWS V14.01,2013-09-27 11:27:00,
2013-09-27 07:32:00,57.6,53.7,30.21,SSE,158,0.0,0.0,87,0.00,,CLR,0.00,VWS V14.01,2013-09-27 11:32:00,
2013-09-27 07:37:00,57.6,53.4,30.21,SSE,158,0.0,0.0,86,0.00,,CLR,0.00,VWS V14.01,2013-09-27 11:37:00,
2013-09-27 07:42:00,57.6,53.7,30.21,SSE,158,0.0,0.0,87,0.00,,CLR,0.00,VWS V14.01,2013-09-27 11:42:00,
2013-09-27 07:47:00,57.6,53.4,30.21,SSE,158,0.0,0.0,86,0.00,,CLR,0.00,VWS V14.01,2013-09-27 11:47:00,
2013-09-27 07:52:00,57.6,53.4,30.21,SSE,158,0.0,0.0,86,0.00,,CLR,0.00,VWS V14.01,2013-09-27 11:52:00,
2013-09-27 07:57:00,57.6,53.7,30.21,SSE,158,0.0,0.0,87,0.00,,CLR,0.00,VWS V14.01,2013-09-27 11:57:00,
2013-09-27 08:00:00,57.6,53.7,30.21,SSE,158,0.0,0.0,87,0.00,,BKN250,0.00,VWS V14.01,2013-09-27 12:00:00,
2013-09-27 08:02:00,57.6,53.7,30.21,SSE,158,0.0,0.0,87,0.00,,CLR,0.00,VWS V14.01,2013-09-27 12:02:00,
2013-09-27 08:07:00,57.7,54.2,30.21,SSE,158,0.0,0.0,88,0.00,,CLR,0.00,VWS V14.01,2013-09-27 12:07:00,
2013-09-27 08:12:00,57.9,54.4,30.21,SSE,158,0.0,0.0,88,0.00,,CLR,0.00,VWS V14.01,2013-09-27 12:12:00,
2013-09-27 08:17:00,57.9,54.7,30.21,SSE,158,0.0,0.0,89,0.00,,,0.00,VWS V14.01,2013-09-27 12:17:00,
2013-09-27 08:22:00,58.1,54.6,30.21,SSE,158,0.0,0.0,88,0.00,,,0.00,VWS V14.01,2013-09-27 12:22:00,
2013-09-27 08:27:00,58.3,54.8,30.21,SSE,158,0.0,0.0,88,0.00,,,0.00,VWS V14.01,2013-09-27 12:27:00,
2013-09-27 08:32:00,58.3,54.8,30.21,SSE,158,0.0,0.0,88,0.00,,,0.00,VWS V14.01,2013-09-27 12:32:00,
2013-09-27 08:37:00,58.6,54.8,30.24,SE,135,0.0,0.0,87,0.00,,,0.00,VWS V14.01,2013-09-27 12:37:00,
2013-09-27 08:42:00,58.8,54.7,30.24,NNW,338,0.0,0.0,86,0.00,,,0.00,VWS V14.01,2013-09-27 12:42:00,
2013-09-27 08:47:00,59.2,54.7,30.24,NNE,22,0.0,0.0,85,0.00,,,0.00,VWS V14.01,2013-09-27 12:47:00,
2013-09-27 08:52:00,59.5,54.7,30.21,North,0,0.0,0.0,84,0.00,,,0.00,VWS V14.01,2013-09-27 12:52:00,
2013-09-27 08:57:00,59.9,54.7,30.21,NNE,22,0.0,0.0,83,0.00,,,0.00,VWS V14.01,2013-09-27 12:57:00,
2013-09-27 09:00:00,60.1,54.9,30.21,NNE,22,0.0,0.0,83,0.00,,BKN250,0.00,VWS V14.01,2013-09-27 13:00:00,
2013-09-27 09:02:00,60.3,54.8,30.21,NNE,22,0.0,0.0,82,0.00,,CLR,0.00,VWS V14.01,2013-09-27 13:02:00,
2013-09-27 09:07:00,60.6,55.1,30.24,North,0,0.0,0.0,82,0.00,,CLR,0.00,VWS V14.01,2013-09-27 13:07:00,
2013-09-27 09:12:00,61.2,55.0,30.24,NNW,338,0.0,2.5,80,0.00,,CLR,0.00,VWS V14.01,2013-09-27 13:12:00,
2013-09-27 09:17:00,61.3,54.8,30.24,NNE,22,0.0,2.5,79,0.00,,CLR,0.00,VWS V14.01,2013-09-27 13:17:00,
2013-09-27 09:22:00,61.7,55.1,30.24,NNW,338,2.9,2.9,79,0.00,,CLR,0.00,VWS V14.01,2013-09-27 13:22:00,
2013-09-27 09:27:00,62.2,55.0,30.24,North,0,0.0,3.1,77,0.00,,CLR,0.00,VWS V14.01,2013-09-27 13:27:00,
2013-09-27 09:32:00,62.4,54.8,30.24,NNE,22,2.2,3.1,76,0.00,,CLR,0.00,VWS V14.01,2013-09-27 13:32:00,
2013-09-27 09:37:00,62.8,54.4,30.24,ESE,112,0.0,3.1,74,0.00,,CLR,0.00,VWS V14.01,2013-09-27 13:37:00,
2013-09-27 09:42:00,63.1,54.0,30.24,NNE,22,0.0,3.1,72,0.00,,CLR,0.00,VWS V14.01,2013-09-27 13:42:00,
2013-09-27 09:47:00,63.5,54.3,30.24,NW,315,2.5,3.1,72,0.00,,CLR,0.00,VWS V14.01,2013-09-27 13:47:00,
2013-09-27 09:52:00,63.9,54.7,30.24,North,0,2.5,3.1,72,0.00,,CLR,0.00,VWS V14.01,2013-09-27 13:52:00,
2013-09-27 09:57:00,64.2,54.6,30.24,NNE,22,0.0,3.1,71,0.00,,CLR,0.00,VWS V14.01,2013-09-27 13:57:00,
2013-09-27 10:00:00,64.4,54.4,30.24,ENE,68,0.0,3.1,70,0.00,,BKN250,0.00,VWS V14.01,2013-09-27 14:00:00,
2013-09-27 10:02:00,64.6,54.6,30.24,NW,315,2.5,2.7,70,0.00,,CLR,0.00,VWS V14.01,2013-09-27 14:02:00,
2013-09-27 10:07:00,64.9,54.1,30.24,NE,45,2.9,3.1,68,0.00,,CLR,0.00,VWS V14.01,2013-09-27 14:07:00,
2013-09-27 10:12:00,65.3,54.1,30.24,North,0,2.0,2.0,67,0.00,,CLR,0.00,VWS V14.01,2013-09-27 14:12:00,
2013-09-27 10:17:00,65.7,54.4,30.24,NNE,22,2.2,2.7,67,0.00,,CLR,0.00,VWS V14.01,2013-09-27 14:17:00,
2013-09-27 10:22:00,66.0,53.9,30.24,NE,45,0.0,2.9,65,0.00,,CLR,0.00,VWS V14.01,2013-09-27 14:22:00,
2013-09-27 10:27:00,66.4,53.8,30.24,NW,315,0.0,2.9,64,0.00,,CLR,0.00,VWS V14.01,2013-09-27 14:27:00,
2013-09-27 10:32:00,66.7,54.2,30.24,NW,315,0.0,2.9,64,0.00,,CLR,0.00,VWS V14.01,2013-09-27 14:32:00,
2013-09-27 10:37:00,67.1,54.1,30.27,NE,45,0.0,2.9,63,0.00,,CLR,0.00,VWS V14.01,2013-09-27 14:37:00,
2013-09-27 10:42:00,67.5,54.0,30.27,NE,45,0.0,2.9,62,0.00,,CLR,0.00,VWS V14.01,2013-09-27 14:42:00,
2013-09-27 10:47:00,67.6,54.2,30.27,South,180,1.3,2.9,62,0.00,,CLR,0.00,VWS V14.01,2013-09-27 14:47:00,
2013-09-27 10:52:00,68.2,54.2,30.27,SE,135,0.0,2.9,61,0.00,,CLR,0.00,VWS V14.01,2013-09-27 14:52:00,
2013-09-27 10:58:00,68.5,52.2,30.27,NNE,22,2.9,3.4,56,0.00,,CLR,0.00,VWS V14.01,2013-09-27 14:58:00,
2013-09-27 11:00:00,68.7,52.4,30.27,NNW,338,1.6,3.4,56,0.00,,BKN250,0.00,VWS V14.01,2013-09-27 15:00:00,
2013-09-27 11:03:00,69.1,53.7,30.27,NNW,338,1.6,4.3,58,0.00,,CLR,0.00,VWS V14.01,2013-09-27 15:03:00,
2013-09-27 11:08:00,69.3,52.4,30.24,NNE,22,0.0,4.3,55,0.00,,CLR,0.00,VWS V14.01,2013-09-27 15:08:00,
2013-09-27 11:13:00,69.6,52.8,30.24,SW,225,0.0,4.3,55,0.00,,CLR,0.00,VWS V14.01,2013-09-27 15:13:00,
2013-09-27 11:18:00,70.2,53.3,30.24,SSE,158,0.0,4.3,55,0.00,,CLR,0.00,VWS V14.01,2013-09-27 15:18:00,
2013-09-27 11:23:00,70.5,53.1,30.24,East,90,0.0,4.3,54,0.00,,CLR,0.00,VWS V14.01,2013-09-27 15:23:00,
2013-09-27 11:28:00,71.1,52.6,30.24,WSW,248,1.1,4.3,52,0.00,,CLR,0.00,VWS V14.01,2013-09-27 15:28:00,
2013-09-27 11:33:00,71.6,53.1,30.24,WSW,248,1.1,4.3,52,0.00,,CLR,0.00,VWS V14.01,2013-09-27 15:33:00,
2013-09-27 11:38:00,72.0,51.8,30.24,NE,45,0.9,4.3,49,0.00,,CLR,0.00,VWS V14.01,2013-09-27 15:38:00,
2013-09-27 11:43:00,72.1,50.8,30.24,SSW,202,2.2,4.3,47,0.00,,CLR,0.00,VWS V14.01,2013-09-27 15:43:00,
2013-09-27 11:47:00,72.5,51.7,30.24,ENE,68,1.1,4.5,48,0.00,,CLR,0.00,VWS V14.01,2013-09-27 15:47:00,
2013-09-27 11:52:00,73.0,51.1,30.24,NNE,22,0.0,4.5,46,0.00,,CLR,0.00,VWS V14.01,2013-09-27 15:52:00,
2013-09-27 11:57:00,73.4,51.4,30.24,SE,135,3.6,4.5,46,0.00,,CLR,0.00,VWS V14.01,2013-09-27 15:57:00,
2013-09-27 12:00:00,73.6,51.0,30.24,ESE,112,0.0,4.5,45,0.00,,BKN250,0.00,VWS V14.01,2013-09-27 16:00:00,
2013-09-27 12:02:00,73.8,51.1,30.24,SSE,158,0.0,1.3,45,0.00,,CLR,0.00,VWS V14.01,2013-09-27 16:02:00,
2013-09-27 12:07:00,74.3,50.4,30.24,East,90,1.1,3.1,43,0.00,,CLR,0.00,VWS V14.01,2013-09-27 16:07:00,
2013-09-27 12:12:00,74.5,50.5,30.24,ESE,112,0.0,4.0,43,0.00,,CLR,0.00,VWS V14.01,2013-09-27 16:12:00,
2013-09-27 12:17:00,74.7,49.4,30.24,NNW,338,1.1,5.4,41,0.00,,CLR,0.00,VWS V14.01,2013-09-27 16:17:00,
2013-09-27 12:22:00,75.0,49.8,30.21,ENE,68,0.0,5.4,41,0.00,,CLR,0.00,VWS V14.01,2013-09-27 16:22:00,
2013-09-27 12:27:00,75.2,49.2,30.21,ESE,112,2.7,5.4,40,0.00,,CLR,0.00,VWS V14.01,2013-09-27 16:27:00,
2013-09-27 12:33:00,75.9,49.9,30.21,WSW,248,1.6,5.4,40,0.00,,CLR,0.00,VWS V14.01,2013-09-27 16:33:00,
2013-09-27 12:38:00,76.3,48.8,30.21,South,180,2.2,5.4,38,0.00,,CLR,0.00,VWS V14.01,2013-09-27 16:38:00,
2013-09-27 12:42:00,76.8,48.6,30.21,ENE,68,0.0,5.4,37,0.00,,CLR,0.00,VWS V14.01,2013-09-27 16:42:00,
2013-09-27 12:47:00,77.0,48.8,30.21,ESE,112,0.0,5.4,37,0.00,,-RA,0.00,VWS V14.01,2013-09-27 16:47:00,
2013-09-27 12:52:00,77.2,45.9,30.21,ENE,68,1.3,5.4,33,0.00,,-RA,0.00,VWS V14.01,2013-09-27 16:52:00,
2013-09-27 12:57:00,77.4,46.8,30.21,SSE,158,0.0,5.4,34,0.00,,-RA,0.00,VWS V14.01,2013-09-27 16:57:00,
2013-09-27 13:00:00,77.4,46.8,30.21,SSW,202,2.0,5.4,34,0.00,,BKN250,0.00,VWS V14.01,2013-09-27 17:00:00,
2013-09-27 13:02:00,77.4,46.8,30.21,South,180,2.5,2.7,34,0.00,,CLR,0.00,VWS V14.01,2013-09-27 17:02:00,
2013-09-27 13:07:00,78.3,46.8,30.21,SSE,158,1.6,3.1,33,0.00,,CLR,0.00,VWS V14.01,2013-09-27 17:07:00,
2013-09-27 13:12:00,78.8,44.8,30.21,ESE,112,3.1,3.1,30,0.00,,CLR,0.00,VWS V14.01,2013-09-27 17:12:00,
2013-09-27 13:17:00,79.0,44.9,30.21,SSE,158,0.0,3.1,30,0.00,,CLR,0.00,VWS V14.01,2013-09-27 17:17:00,
2013-09-27 13:22:00,79.2,45.1,30.21,East,90,3.1,3.1,30,0.00,,CLR,0.00,VWS V14.01,2013-09-27 17:22:00,
2013-09-27 13:26:00,79.3,45.2,30.21,SSE,158,1.6,3.1,30,0.00,,CLR,0.00,VWS V14.01,2013-09-27 17:26:00,
2013-09-27 13:31:00,79.5,45.4,30.21,SSE,158,0.0,6.0,30,0.00,,CLR,0.00,VWS V14.01,2013-09-27 17:31:00,
2013-09-27 13:36:00,79.7,41.8,30.21,WNW,292,3.6,6.0,26,0.00,,CLR,0.00,VWS V14.01,2013-09-27 17:36:00,
2013-09-27 13:41:00,79.9,42.0,30.21,SSE,158,1.6,6.0,26,0.00,,CLR,0.00,VWS V14.01,2013-09-27 17:41:00,
2013-09-27 13:46:00,80.2,41.3,30.21,North,0,2.7,6.0,25,0.00,,-RA,0.00,VWS V14.01,2013-09-27 17:46:00,
2013-09-27 13:51:00,80.2,41.3,30.21,SSE,158,2.7,6.0,25,0.00,,-RA,0.00,VWS V14.01,2013-09-27 17:51:00,
2013-09-27 13:56:00,81.0,41.9,30.21,SE,135,2.9,6.0,25,0.00,,-RA,0.00,VWS V14.01,2013-09-27 17:56:00,
2013-09-27 14:00:00,81.1,39.9,30.21,SSE,158,2.9,6.0,23,0.00,,BKN250,0.00,VWS V14.01,2013-09-27 18:00:00,
2013-09-27 14:01:00,81.1,41.0,30.21,South,180,2.5,2.9,24,0.00,,CLR,0.00,VWS V14.01,2013-09-27 18:01:00,
2013-09-27 14:06:00,81.1,39.9,30.21,WNW,292,1.1,3.1,23,0.00,,CLR,0.00,VWS V14.01,2013-09-27 18:06:00,
2013-09-27 14:11:00,81.0,38.6,30.21,NNE,22,0.0,3.1,22,0.00,,CLR,0.00,VWS V14.01,2013-09-27 18:11:00,
2013-09-27 14:16:00,81.0,38.6,30.21,ENE,68,0.9,4.0,22,0.00,,CLR,0.00,VWS V14.01,2013-09-27 18:16:00,
2013-09-27 14:21:00,81.1,37.5,30.18,South,180,1.6,4.9,21,0.00,,CLR,0.00,VWS V14.01,2013-09-27 18:21:00,
2013-09-27 14:26:00,81.1,36.3,30.18,NNE,22,2.7,4.9,20,0.00,,CLR,0.00,VWS V14.01,2013-09-27 18:26:00,
2013-09-27 14:31:00,81.1,37.5,30.18,NNW,338,2.5,4.9,21,0.00,,CLR,0.00,VWS V14.01,2013-09-27 18:31:00,
2013-09-27 14:36:00,81.0,36.2,30.18,ESE,112,0.0,4.9,20,0.00,,CLR,0.00,VWS V14.01,2013-09-27 18:36:00,
2013-09-27 14:41:00,80.8,34.7,30.18,North,0,3.8,4.9,19,0.00,,CLR,0.00,VWS V14.01,2013-09-27 18:41:00,
2013-09-27 14:46:00,80.8,36.0,30.18,WNW,292,2.9,4.9,20,0.00,,CLR,0.00,VWS V14.01,2013-09-27 18:46:00,
2013-09-27 14:51:00,81.0,37.4,30.18,SE,135,2.9,4.9,21,0.00,,CLR,0.00,VWS V14.01,2013-09-27 18:51:00,
2013-09-27 14:56:00,81.3,37.7,30.18,SSW,202,2.0,4.9,21,0.00,,CLR,0.00,VWS V14.01,2013-09-27 18:56:00,
2013-09-27 15:00:00,81.3,36.5,30.18,South,180,0.9,4.9,20,0.00,,BKN250,0.00,VWS V14.01,2013-09-27 19:00:00,
2013-09-27 15:01:00,81.3,36.5,30.18,South,180,1.6,2.0,20,0.00,,CLR,0.00,VWS V14.01,2013-09-27 19:01:00,
2013-09-27 15:06:00,81.3,37.7,30.15,ENE,68,2.5,2.5,21,0.00,,CLR,0.00,VWS V14.01,2013-09-27 19:06:00,
2013-09-27 15:11:00,81.3,36.5,30.15,ESE,112,2.5,4.3,20,0.00,,CLR,0.00,VWS V14.01,2013-09-27 19:11:00,
2013-09-27 15:16:00,81.0,36.2,30.15,East,90,2.5,4.3,20,0.00,,BKN250,0.00,VWS V14.01,2013-09-27 19:16:00,
2013-09-27 15:21:00,80.8,36.0,30.15,NNE,22,2.7,4.3,20,0.00,,BKN250,0.00,VWS V14.01,2013-09-27 19:21:00,
2013-09-27 15:26:00,80.6,35.9,30.15,SE,135,1.3,4.3,20,0.00,,BKN250,0.00,VWS V14.01,2013-09-27 19:26:00,
2013-09-27 15:31:00,80.4,35.7,30.15,ESE,112,0.0,4.3,20,0.00,,BKN250,0.00,VWS V14.01,2013-09-27 19:31:00,
2013-09-27 15:36:00,80.4,35.7,30.15,SSE,158,0.0,4.3,20,0.00,,BKN250,0.00,VWS V14.01,2013-09-27 19:36:00,
2013-09-27 15:41:00,80.2,35.6,30.15,ESE,112,2.0,4.3,20,0.00,,BKN250,0.00,VWS V14.01,2013-09-27 19:41:00,
2013-09-27 15:46:00,80.2,35.6,30.15,NE,45,0.9,4.3,20,0.00,,BKN250,0.00,VWS V14.01,2013-09-27 19:46:00,
2013-09-27 15:51:00,80.2,36.8,30.15,SSE,158,1.6,4.3,21,0.00,,BKN250,0.00,VWS V14.01,2013-09-27 19:51:00,
2013-09-27 15:56:00,80.1,35.4,30.15,North,0,0.0,4.3,20,0.00,,BKN250,0.00,VWS V14.01,2013-09-27 19:56:00,
2013-09-27 16:00:00,80.1,35.4,30.15,WNW,292,2.7,4.3,20,0.00,,BKN250,0.00,VWS V14.01,2013-09-27 20:00:00,
2013-09-27 16:01:00,80.1,35.4,30.15,SSE,158,1.6,2.7,20,0.00,,BKN250,0.00,VWS V14.01,2013-09-27 20:01:00,
2013-09-27 16:06:00,79.9,36.5,30.12,SSW,202,2.0,2.7,21,0.00,,BKN250,0.00,VWS V14.01,2013-09-27 20:06:00,
2013-09-27 16:11:00,80.1,36.7,30.12,South,180,2.2,3.1,21,0.00,,BKN250,0.00,VWS V14.01,2013-09-27 20:11:00,
2013-09-27 16:16:00,79.9,36.5,30.12,NNE,22,2.9,3.4,21,0.00,,SCT250,0.00,VWS V14.01,2013-09-27 20:16:00,
2013-09-27 16:21:00,79.9,35.3,30.12,SE,135,2.9,3.4,20,0.00,,SCT250,0.00,VWS V14.01,2013-09-27 20:21:00,
2013-09-27 16:26:00,79.9,35.3,30.15,SSE,158,1.3,3.8,20,0.00,,SCT250,0.00,VWS V14.01,2013-09-27 20:26:00,
2013-09-27 16:31:00,79.9,36.5,30.15,South,180,4.3,5.4,21,0.00,,SCT250,0.00,VWS V14.01,2013-09-27 20:31:00,
2013-09-27 16:36:00,79.9,36.5,30.15,SSE,158,1.6,5.4,21,0.00,,SCT250,0.00,VWS V14.01,2013-09-27 20:36:00,
2013-09-27 16:41:00,79.9,36.5,30.15,NE,45,1.1,5.4,21,0.00,,SCT250,0.00,VWS V14.01,2013-09-27 20:41:00,
2013-09-27 16:46:00,79.9,35.3,30.15,NNW,338,0.0,5.4,20,0.00,,SCT250,0.00,VWS V14.01,2013-09-27 20:46:00,
2013-09-27 16:51:00,79.9,36.5,30.15,SSW,202,0.9,5.4,21,0.00,,SCT250,0.00,VWS V14.01,2013-09-27 20:51:00,
2013-09-27 16:56:00,79.9,36.5,30.15,SSE,158,0.0,5.4,21,0.00,,SCT250,0.00,VWS V14.01,2013-09-27 20:56:00,
2013-09-27 17:00:00,79.9,35.3,30.15,South,180,0.0,5.4,20,0.00,,BKN250,0.00,VWS V14.01,2013-09-27 21:00:00,
2013-09-27 17:01:00,79.9,35.3,30.15,SSW,202,0.0,0.0,20,0.00,,SCT250,0.00,VWS V14.01,2013-09-27 21:01:00,
2013-09-27 17:06:00,79.7,35.1,30.15,South,180,2.5,2.9,20,0.00,,SCT250,0.00,VWS V14.01,2013-09-27 21:06:00,
2013-09-27 17:11:00,79.5,35.0,30.15,NNE,22,2.7,3.4,20,0.00,,SCT250,0.00,VWS V14.01,2013-09-27 21:11:00,
2013-09-27 17:16:00,79.5,35.0,30.15,ESE,112,1.1,3.4,20,0.00,,FEW250,0.00,VWS V14.01,2013-09-27 21:16:00,
2013-09-27 17:21:00,79.7,35.1,30.15,ENE,68,2.7,4.0,20,0.00,,FEW250,0.00,VWS V14.01,2013-09-27 21:21:00,
2013-09-27 17:26:00,79.7,35.1,30.15,ESE,112,2.2,4.0,20,0.00,,FEW250,0.00,VWS V14.01,2013-09-27 21:26:00,
2013-09-27 17:31:00,79.7,35.1,30.15,NNE,22,0.0,4.0,20,0.00,,FEW250,0.00,VWS V14.01,2013-09-27 21:31:00,
2013-09-27 17:36:00,79.5,35.0,30.15,NE,45,0.0,4.0,20,0.00,,FEW250,0.00,VWS V14.01,2013-09-27 21:36:00,
2013-09-27 17:41:00,79.3,34.8,30.15,ESE,112,2.0,4.0,20,0.00,,FEW250,0.00,VWS V14.01,2013-09-27 21:41:00,
2013-09-27 17:46:00,79.2,34.7,30.15,ESE,112,0.9,4.0,20,0.00,,FEW250,0.00,VWS V14.01,2013-09-27 21:46:00,
2013-09-27 17:51:00,78.8,34.4,30.15,SE,135,2.0,4.3,20,0.00,,FEW250,0.00,VWS V14.01,2013-09-27 21:51:00,
2013-09-27 17:56:00,78.8,34.4,30.15,North,0,0.0,4.3,20,0.00,,FEW250,0.00,VWS V14.01,2013-09-27 21:56:00,
2013-09-27 18:00:00,78.6,34.2,30.15,NE,45,0.0,4.3,20,0.00,,BKN250,0.00,VWS V14.01,2013-09-27 22:00:00,
2013-09-27 18:01:00,78.4,34.1,30.15,SE,135,0.0,2.2,20,0.00,,FEW250,0.00,VWS V14.01,2013-09-27 22:01:00,
2013-09-27 18:06:00,78.3,35.2,30.15,SSE,158,0.0,4.3,21,0.00,,FEW250,0.00,VWS V14.01,2013-09-27 22:06:00,
2013-09-27 18:11:00,77.9,34.9,30.15,ESE,112,3.1,4.3,21,0.00,,FEW250,0.00,VWS V14.01,2013-09-27 22:11:00,
2013-09-27 18:16:00,77.7,34.7,30.15,SSE,158,2.9,4.3,21,0.00,,FEW250,0.00,VWS V14.01,2013-09-27 22:16:00,
2013-09-27 18:21:00,77.4,34.4,30.15,SSE,158,2.9,4.3,21,0.00,,FEW250,0.00,VWS V14.01,2013-09-27 22:21:00,
2013-09-27 18:26:00,77.4,34.4,30.15,SE,135,1.6,4.3,21,0.00,,FEW250,0.00,VWS V14.01,2013-09-27 22:26:00,
2013-09-27 18:31:00,77.0,34.1,30.15,SSE,158,1.3,4.3,21,0.00,,FEW250,0.00,VWS V14.01,2013-09-27 22:31:00,
2013-09-27 18:36:00,76.8,35.1,30.15,ENE,68,1.3,4.3,22,0.00,,FEW250,0.00,VWS V14.01,2013-09-27 22:36:00,
2013-09-27 18:41:00,76.6,35.0,30.15,ESE,112,0.0,4.3,22,0.00,,FEW250,0.00,VWS V14.01,2013-09-27 22:41:00,
2013-09-27 18:46:00,76.6,35.0,30.15,NNE,22,0.0,4.3,22,0.00,,FEW250,0.00,VWS V14.01,2013-09-27 22:46:00,
2013-09-27 18:50:00,76.5,34.8,30.15,SE,135,2.7,4.3,22,0.00,,FEW250,0.00,VWS V14.01,2013-09-27 22:50:00,
2013-09-27 18:55:00,76.1,34.5,30.15,SSE,158,1.3,4.3,22,0.00,,FEW250,0.00,VWS V14.01,2013-09-27 22:55:00,
2013-09-27 19:00:00,75.9,34.4,30.15,SSE,158,3.1,3.1,22,0.00,,FEW250,0.00,VWS V14.01,2013-09-27 23:00:00,
2013-09-27 19:05:00,75.7,34.2,30.15,SSE,158,0.9,3.4,22,0.00,,FEW250,0.00,VWS V14.01,2013-09-27 23:05:00,
2013-09-27 19:10:00,75.4,33.9,30.15,ESE,112,0.0,3.4,22,0.00,,FEW250,0.00,VWS V14.01,2013-09-27 23:10:00,
2013-09-27 19:15:00,75.0,34.7,30.15,SSE,158,0.0,3.4,23,0.00,,CLR,0.00,VWS V14.01,2013-09-27 23:15:00,
2013-09-27 19:20:00,74.8,34.6,30.15,SE,135,0.0,3.4,23,0.00,,CLR,0.00,VWS V14.01,2013-09-27 23:20:00,
2013-09-27 19:25:00,74.7,34.4,30.15,SSE,158,0.0,3.4,23,0.00,,CLR,0.00,VWS V14.01,2013-09-27 23:25:00,
2013-09-27 19:30:00,74.3,35.2,30.15,South,180,0.0,3.4,24,0.00,,CLR,0.00,VWS V14.01,2013-09-27 23:30:00,
2013-09-27 19:35:00,74.1,35.1,30.15,SSE,158,0.0,3.4,24,0.00,,CLR,0.00,VWS V14.01,2013-09-27 23:35:00,
2013-09-27 19:40:00,73.9,34.9,30.15,SSE,158,0.0,3.4,24,0.00,,CLR,0.00,VWS V14.01,2013-09-27 23:40:00,
2013-09-27 19:45:00,73.6,35.6,30.15,SSE,158,0.0,3.4,25,0.00,,-RA,0.00,VWS V14.01,2013-09-27 23:45:00,
2013-09-27 19:50:00,73.2,36.3,30.15,SSE,158,0.0,3.4,26,0.00,,-RA,0.00,VWS V14.01,2013-09-27 23:50:00,
2013-09-27 19:55:00,72.9,37.0,30.15,SSE,158,0.0,3.4,27,0.00,,-RA,0.00,VWS V14.01,2013-09-27 23:55:00,
2013-09-27 20:00:00,72.3,38.3,30.15,SSE,158,0.0,0.0,29,0.00,,CLR,0.00,VWS V14.01,2013-09-28 00:00:00,
2013-09-27 20:05:00,72.1,38.2,30.15,SSE,158,0.0,0.0,29,0.00,,CLR,0.00,VWS V14.01,2013-09-28 00:05:00,
2013-09-27 20:10:00,71.8,39.5,30.15,SSE,158,0.0,0.0,31,0.00,,CLR,0.00,VWS V14.01,2013-09-28 00:10:00,
2013-09-27 20:15:00,71.4,40.0,30.15,SSE,158,0.0,0.0,32,0.00,,CLR,0.00,VWS V14.01,2013-09-28 00:15:00,
2013-09-27 20:20:00,71.1,39.7,30.15,SSE,158,0.0,0.0,32,0.00,,CLR,0.00,VWS V14.01,2013-09-28 00:20:00,
2013-09-27 20:25:00,70.9,40.4,30.15,SSE,158,0.0,0.0,33,0.00,,CLR,0.00,VWS V14.01,2013-09-28 00:25:00,
2013-09-27 20:31:00,70.5,40.1,30.15,SSE,158,0.0,0.0,33,0.00,,CLR,0.00,VWS V14.01,2013-09-28 00:31:00,
2013-09-27 20:36:00,70.3,40.7,30.15,SSE,158,0.0,0.0,34,0.00,,CLR,0.00,VWS V14.01,2013-09-28 00:36:00,
2013-09-27 20:41:00,70.0,40.3,30.15,SSE,158,0.0,0.0,34,0.00,,CLR,0.00,VWS V14.01,2013-09-28 00:41:00,
2013-09-27 20:46:00,69.8,40.9,30.15,SSE,158,0.0,0.0,35,0.00,,CLR,0.00,VWS V14.01,2013-09-28 00:46:00,
2013-09-27 20:51:00,69.4,41.3,30.15,SSE,158,0.0,0.0,36,0.00,,CLR,0.00,VWS V14.01,2013-09-28 00:51:00,
2013-09-27 20:56:00,69.3,41.2,30.15,SSE,158,0.0,0.0,36,0.00,,CLR,0.00,VWS V14.01,2013-09-28 00:56:00,
2013-09-27 21:00:00,69.1,41.7,30.15,SSE,158,0.0,0.0,37,0.00,,BKN250,0.00,VWS V14.01,2013-09-28 01:00:00,
2013-09-27 21:01:00,69.1,41.7,30.15,SSE,158,0.0,0.0,37,0.00,,CLR,0.00,VWS V14.01,2013-09-28 01:01:00,
2013-09-27 21:06:00,68.9,42.3,30.15,SSE,158,0.0,0.0,38,0.00,,CLR,0.00,VWS V14.01,2013-09-28 01:06:00,
2013-09-27 21:11:00,68.7,42.1,30.15,SSE,158,0.0,0.0,38,0.00,,CLR,0.00,VWS V14.01,2013-09-28 01:11:00,
2013-09-27 21:16:00,68.4,42.5,30.15,SSE,158,0.0,0.0,39,0.00,,CLR,0.00,VWS V14.01,2013-09-28 01:16:00,
2013-09-27 21:21:00,68.2,43.6,30.15,SSE,158,0.0,0.0,41,0.00,,CLR,0.00,VWS V14.01,2013-09-28 01:21:00,
2013-09-27 21:26:00,68.0,44.1,30.15,SSE,158,0.0,0.0,42,0.00,,CLR,0.00,VWS V14.01,2013-09-28 01:26:00,
2013-09-27 21:31:00,67.8,43.9,30.15,SSE,158,0.0,0.0,42,0.00,,CLR,0.00,VWS V14.01,2013-09-28 01:31:00,
2013-09-27 21:36:00,67.6,44.4,30.15,SSE,158,0.0,0.0,43,0.00,,CLR,0.00,VWS V14.01,2013-09-28 01:36:00,
2013-09-27 21:41:00,67.6,45.0,30.15,SSE,158,0.0,0.0,44,0.00,,CLR,0.00,VWS V14.01,2013-09-28 01:41:00,
2013-09-27 21:46:00,67.5,44.8,30.15,SSE,158,0.0,0.0,44,0.00,,CLR,0.00,VWS V14.01,2013-09-28 01:46:00,
2013-09-27 21:51:00,67.3,45.2,30.15,SSE,158,0.0,0.0,45,0.00,,CLR,0.00,VWS V14.01,2013-09-28 01:51:00,
2013-09-27 21:56:00,67.1,45.1,30.15,SSE,158,0.0,0.0,45,0.00,,CLR,0.00,VWS V14.01,2013-09-28 01:56:00,
2013-09-27 22:00:00,67.1,45.7,30.15,SSE,158,0.0,0.0,46,0.00,,BKN250,0.00,VWS V14.01,2013-09-28 02:00:00,
2013-09-27 22:01:00,66.9,45.5,30.15,SSE,158,0.0,0.0,46,0.00,,CLR,0.00,VWS V14.01,2013-09-28 02:01:00,
2013-09-27 22:06:00,66.9,46.0,30.15,SSE,158,0.0,0.0,47,0.00,,CLR,0.00,VWS V14.01,2013-09-28 02:06:00,
2013-09-27 22:11:00,66.6,46.3,30.15,SSE,158,0.0,0.0,48,0.00,,CLR,0.00,VWS V14.01,2013-09-28 02:11:00,
2013-09-27 22:16:00,66.6,46.8,30.15,SSE,158,0.0,0.0,49,0.00,,CLR,0.00,VWS V14.01,2013-09-28 02:16:00,
2013-09-27 22:21:00,66.4,46.7,30.18,SSE,158,0.0,0.0,49,0.00,,CLR,0.00,VWS V14.01,2013-09-28 02:21:00,
2013-09-27 22:26:00,66.2,46.5,30.18,SSE,158,0.0,0.0,49,0.00,,CLR,0.00,VWS V14.01,2013-09-28 02:26:00,
2013-09-27 22:31:00,66.0,47.4,30.18,SSE,158,0.0,0.0,51,0.00,,CLR,0.00,VWS V14.01,2013-09-28 02:31:00,
2013-09-27 22:36:00,66.0,47.4,30.15,SSE,158,0.0,0.0,51,0.00,,CLR,0.00,VWS V14.01,2013-09-28 02:36:00,
2013-09-27 22:41:00,65.8,47.2,30.15,SSE,158,0.0,0.0,51,0.00,,CLR,0.00,VWS V14.01,2013-09-28 02:41:00,
2013-09-27 22:46:00,65.7,47.1,30.15,SSE,158,0.0,0.0,51,0.00,,CLR,0.00,VWS V14.01,2013-09-28 02:46:00,
2013-09-27 22:51:00,65.7,48.1,30.15,SSE,158,0.0,0.0,53,0.00,,CLR,0.00,VWS V14.01,2013-09-28 02:51:00,
2013-09-27 22:56:00,65.5,47.9,30.15,SSE,158,0.0,0.0,53,0.00,,CLR,0.00,VWS V14.01,2013-09-28 02:56:00,
2013-09-27 23:00:00,65.3,48.2,30.15,SSE,158,0.0,0.0,54,0.00,,BKN250,0.00,VWS V14.01,2013-09-28 03:00:00,
2013-09-27 23:01:00,65.3,48.7,30.15,SSE,158,0.0,0.0,55,0.00,,CLR,0.00,VWS V14.01,2013-09-28 03:01:00,
2013-09-27 23:06:00,65.3,48.7,30.15,SSE,158,0.0,0.0,55,0.00,,CLR,0.00,VWS V14.01,2013-09-28 03:06:00,
2013-09-27 23:11:00,65.1,50.0,30.18,SSE,158,0.0,0.0,58,0.00,,CLR,0.00,VWS V14.01,2013-09-28 03:11:00,
2013-09-27 23:16:00,64.9,49.4,30.18,SSE,158,0.0,0.0,57,0.00,,CLR,0.00,VWS V14.01,2013-09-28 03:16:00,
2013-09-27 23:21:00,64.8,50.1,30.18,SSE,158,0.0,0.0,59,0.00,,CLR,0.00,VWS V14.01,2013-09-28 03:21:00,
2013-09-27 23:26:00,64.6,49.5,30.18,SSE,158,0.0,0.0,58,0.00,,CLR,0.00,VWS V14.01,2013-09-28 03:26:00,
2013-09-27 23:31:00,64.6,50.0,30.18,SSE,158,0.0,0.0,59,0.00,,CLR,0.00,VWS V14.01,2013-09-28 03:31:00,
2013-09-27 23:36:00,64.4,50.2,30.15,SSE,158,0.0,0.0,60,0.00,,CLR,0.00,VWS V14.01,2013-09-28 03:36:00,
2013-09-27 23:41:00,64.2,50.1,30.15,SSE,158,0.0,0.0,60,0.00,,CLR,0.00,VWS V14.01,2013-09-28 03:41:00,
2013-09-27 23:46:00,64.2,50.9,30.15,SSE,158,0.0,0.0,62,0.00,,CLR,0.00,VWS V14.01,2013-09-28 03:46:00,
2013-09-27 23:51:00,64.0,50.8,30.15,SSE,158,0.0,0.0,62,0.00,,CLR,0.00,VWS V14.01,2013-09-28 03:51:00,
2013-09-27 23:56:00,63.9,51.0,30.15,SSE,158,0.0,0.0,63,0.00,,CLR,0.00,VWS V14.01,2013-09-28 03:56:00,